2023/01/31 00:00:00,101.2,-0.8
2023/01/31 00:10:00,101.1,-0.9
2023/01/31 00:20:00,101.0,-1.1
2023/01/31 00:30:00,100.8,-1.4
2023/01/31 00:40:00,100.5,-2.1
2023/01/31 00:50:00,100.3,-2.1
2023/01/31 01:00:00,100.3,-2.5
2023/01/31 01:10:00,100.4,-2.8
2023/01/31 01:20:00,100.4,-3.0
2023/01/31 01:30:00,100.3,-2.9
2023/01/31 01:40:00,100.3,-2.4
2023/01/31 01:50:00,100.4,-2.2
2023/01/31 02:00:00,100.5,-1.8
2023/01/31 02:10:00,100.2,-1.7
2023/01/31 02:20:00,100.1,-1.5
2023/01/31 02:30:00,100.2,-1.7
2023/01/31 02:40:00,100.2,-1.2
2023/01/31 02:50:00,100.1,-1.5
2023/01/31 03:00:00,100.0,-1.8
2023/01/31 03:10:00,99.9,-1.5
2023/01/31 03:20:00,99.8,-1.5
2023/01/31 03:30:00,99.8,-1.5
2023/01/31 03:40:00,99.7,-1.4
2023/01/31 03:50:00,99.7,-1.4
2023/01/31 04:00:00,99.7,-1.3
2023/01/31 04:10:00,99.8,-1.3
2023/01/31 04:20:00,99.8,-1.3
2023/01/31 04:30:00,99.7,-1.4
2023/01/31 04:40:00,99.5,-1.5
2023/01/31 04:50:00,99.5,-1.9
2023/01/31 05:00:00,99.5,-1.8
2023/01/31 05:10:00,99.5,-1.5
2023/01/31 05:20:00,99.4,-1.4
2023/01/31 05:30:00,99.4,-1.6
2023/01/31 05:40:00,99.3,-1.6
2023/01/31 05:50:00,99.2,-1.7
2023/01/31 06:00:00,99.2,-1.5
2023/01/31 06:10:00,99.1,-1.5
2023/01/31 06:20:00,99.0,-1.4
2023/01/31 06:30:00,98.8,-1.4
2023/01/31 06:40:00,98.7,-1.6
2023/01/31 06:50:00,98.7,-1.6
2023/01/31 07:00:00,98.6,-1.4
2023/01/31 07:10:00,98.4,-1.5
2023/01/31 07:20:00,98.4,-1.4
2023/01/31 07:30:00,98.3,-1.3
2023/01/31 07:40:00,98.3,-1.1
2023/01/31 07:50:00,98.3,-1.1
2023/01/31 08:00:00,98.2,-0.8
2023/01/31 08:10:00,98.2,-0.6
2023/01/31 08:20:00,98.3,-0.6
2023/01/31 08:30:00,98.3,-0.3
2023/01/31 08:40:00,98.8,-0.2
2023/01/31 08:50:00,98.9,-0.2
2023/01/31 09:00:00,98.9,-0.2
2023/01/31 09:10:00,98.8, 0.0
2023/01/31 09:20:00,99.1, 0.2
2023/01/31 09:30:00,99.2, 0.3
2023/01/31 09:40:00,99.2, 0.4
2023/01/31 09:50:00,99.3, 1.0
2023/01/31 10:00:00,99.4, 1.7
2023/01/31 10:10:00,99.3, 2.2
2023/01/31 10:20:00,99.3, 2.7
2023/01/31 10:30:00,99.0, 3.4
2023/01/31 10:40:00,98.8, 3.4
2023/01/31 10:50:00,98.8, 4.4
2023/01/31 11:00:00,98.6, 4.9
2023/01/31 11:10:00,98.4, 7.5
2023/01/31 11:20:00,98.0,12.7
2023/01/31 11:30:00,97.9,13.4
2023/01/31 11:40:00,97.6,15.5
2023/01/31 11:50:00,97.2,17.9
2023/01/31 12:00:00,96.8,16.7
2023/01/31 12:10:00,96.2,15.0
2023/01/31 12:20:00,95.8,15.5
2023/01/31 12:30:00,95.4,13.0
2023/01/31 12:40:00,94.7,12.6
2023/01/31 12:50:00,94.2,12.6
2023/01/31 13:00:00,93.8,13.9
2023/01/31 13:10:00,93.1,13.3
2023/01/31 13:20:00,92.3,12.3
2023/01/31 13:30:00,91.8,12.6
2023/01/31 13:40:00,91.5,11.6
2023/01/31 13:50:00,91.3,12.2
2023/01/31 14:00:00,91.2,11.2
2023/01/31 14:10:00,91.1,12.3
2023/01/31 14:20:00,90.9, 8.5
2023/01/31 14:30:00,90.7,10.9
2023/01/31 14:40:00,90.7, 7.0
2023/01/31 14:50:00,90.5, 5.4
2023/01/31 15:00:00,90.1, 5.1
2023/01/31 15:10:00,89.9, 5.1
2023/01/31 15:20:00,90.0, 9.8
2023/01/31 15:30:00,89.8,11.2
2023/01/31 15:40:00,89.7, 7.9
2023/01/31 15:50:00,89.7, 9.1
2023/01/31 16:00:00,89.5, 8.5
2023/01/31 16:10:00,89.3, 9.5
2023/01/31 16:20:00,89.2, 6.5
2023/01/31 16:30:00,89.3, 4.2
2023/01/31 16:40:00,89.5, 3.5
2023/01/31 16:50:00,89.1, 3.1
2023/01/31 17:00:00,88.7, 2.7
2023/01/31 17:10:00,88.4, 2.1
2023/01/31 17:20:00,88.4, 1.8
2023/01/31 17:30:00,88.4, 1.5
2023/01/31 17:40:00,88.3, 1.5
2023/01/31 17:50:00,88.2, 1.4
2023/01/31 18:00:00,88.1, 1.4
2023/01/31 18:10:00,88.0, 1.4
2023/01/31 18:20:00,87.8, 0.8
2023/01/31 18:30:00,87.7, 0.6
2023/01/31 18:40:00,87.7, 0.8
2023/01/31 18:50:00,87.6, 0.4
2023/01/31 19:00:00,87.6, 0.2
2023/01/31 19:10:00,87.5,-0.1
2023/01/31 19:20:00,87.5,-0.1
2023/01/31 19:30:00,87.5, 0.0
2023/01/31 19:40:00,87.5, 0.2
2023/01/31 19:50:00,87.5,-0.1
2023/01/31 20:00:00,87.4, 0.1
2023/01/31 20:10:00,87.4, 0.2
2023/01/31 20:20:00,87.3, 0.0
2023/01/31 20:30:00,87.2, 0.0
2023/01/31 20:40:00,87.2,-0.1
2023/01/31 20:50:00,87.2,-0.2
2023/01/31 21:00:00,87.2,-0.1
2023/01/31 21:10:00,87.2,-0.5
2023/01/31 21:20:00,87.0,-0.4
2023/01/31 21:30:00,87.0,-0.5
2023/01/31 21:40:00,87.0,-0.5
2023/01/31 21:50:00,87.0,-0.7
2023/01/31 22:00:00,87.0,-0.9
2023/01/31 22:10:00,87.0,-0.9
2023/01/31 22:20:00,86.9,-1.1
2023/01/31 22:30:00,86.8,-1.1
2023/01/31 22:40:00,86.7,-1.2
2023/01/31 22:50:00,86.7,-1.2
2023/01/31 23:00:00,86.7,-1.2
2023/01/31 23:10:00,86.6,-1.1
2023/01/31 23:20:00,86.6,-1.4
2023/01/31 23:30:00,86.5,-1.3
2023/01/31 23:40:00,86.5,-1.6
2023/01/31 23:50:00,86.5,-1.6
